Location: Cuhem
(50.5700°N, 2.2785°E)
Time: 19:04:49
(UTC+00:00)

Daily predictions for brighter satellites

Satellite Brightness Start Highest point End
(mag) Time Altitude Azimuth Time Altitude Azimuth Time Altitude Azimuth
Cosmos 2184 Rocket 4.1 17:57:39 10° SSE 18:03:38 56° E 18:09:43 10° NNE
Cosmos 1939 Rocket 4.0 18:00:39 10° S 18:04:24 49° W 18:08:10 10° NNW
CZ-2C R/B 3.6 18:02:33 10° NE 18:07:06 26° E 18:11:34 10° SSE
CZ-4 R/B 1.3 18:05:35 10° SSE 18:09:23 65° ENE 18:13:18 10° N
H-2A R/B 2.2 18:04:08 10° SSE 18:09:32 68° ENE 18:14:57 10° N
USA 305 3.2 18:05:50 10° W 18:10:05 64° NNW 18:14:20 10° ENE
Gbstr 26 Del rocket 3.2 18:08:30 10° WSW 18:12:48 87° SSE 18:18:05 10° ENE
IRS-1C Rocket 4.1 18:08:03 10° SSE 18:13:19 86° ENE 18:18:39 10° NNW
SL-4 R/B 1.7 18:11:36 10° W 18:15:12 73° N 18:18:38 10° E
Meteor 1-20 Rocket 4.2 18:10:22 10° S 18:15:45 65° E 18:21:14 10° NNE
Cosmos 1302 Rocket 4.0 18:10:47 10° SSW 18:15:58 80° ESE 18:21:13 10° NNE
CSL-04 DEB 4.3 18:14:05 10° NNE 18:18:03 82° ESE 18:22:03 10° SSW
USA 307 3.3 18:17:08 10° W 18:21:23 61° NNW 18:25:38 10° ENE
FALCON 9 DEB 3.1 18:19:27 10° WNW 18:22:54 88° SSW 18:26:13 11° ESE
ATLAS CENTAUR R/B 2.5 18:21:48 10° SSE 18:24:28 19° ESE 18:26:57 11° ENE
USA 306 3.3 18:20:34 10° W 18:24:48 59° N 18:28:56 11° ENE
Cosmos 1354 Rocket 4.2 18:19:49 10° NNW 18:25:00 54° ENE 18:30:07 10° SE
USA 186 3.1 18:25:07 13° ENE 18:25:26 13° ENE 18:26:40 10° NE
Cosmos 44 Rocket 3.7 18:21:07 10° NW 18:26:22 74° SW 18:31:33 10° SSE
FALCON 9 DEB 3.4 18:24:00 10° W 18:27:07 52° N 18:29:48 13° ENE
ERS-2 2.5 18:23:49 10° NNE 18:27:17 39° E 18:30:44 10° S
Cosmos 1844 Rocket 2.8 18:23:09 10° NNW 18:28:40 57° NE 18:34:08 10° SE
Cosmos 2084 Rocket 3.6 18:24:32 10° NW 18:28:52 82° SW 18:33:20 10° SE
FALCON 9 DEB 3.4 18:25:55 10° W 18:29:04 53° N 18:31:45 13° ENE
Okean-O 2.6 18:24:49 10° SSE 18:29:15 86° ENE 18:33:43 10° NNW
CSL-04 Rocket 3.8 18:25:15 10° SSE 18:30:42 60° ENE 18:36:07 10° N
USA 308 3.3 18:27:46 10° W 18:32:00 58° N 18:35:51 12° ENE
CSL-04 Debris 4.2 18:26:39 10° SSE 18:32:02 65° ENE 18:37:28 10° N
Cosmos 1271 Rocket 4.1 18:29:30 10° NNW 18:33:03 43° W 18:36:37 10° SSW
Cosmos 1666 4.0 18:32:06 10° SE 18:34:46 19° E 18:37:28 10° NE
Cosmos 1503 Rocket 3.9 18:30:03 10° NNW 18:35:17 72° ENE 18:40:26 10° SSE
H-2A R/B 3.9 18:32:24 10° N 18:36:04 32° WNW 18:39:44 10° SW
HJ-1C 3.2 18:33:50 10° SSE 18:37:08 73° ENE 18:40:27 10° N
SKYMED 2 4.4 18:33:01 10° N 18:37:17 56° WNW 18:41:32 10° SSW
MOS 1 Rocket 4.4 18:33:26 10° N 18:38:18 53° WNW 18:43:25 10° SW
PSLV R/B 3.8 18:34:19 10° NNE 18:38:25 68° ESE 18:42:28 10° S
Cosmos 2341 Rocket 4.4 18:33:02 10° SSE 18:38:48 39° E 18:44:32 10° NNE
Cosmos 1844 3.8 18:34:44 10° NNW 18:40:28 59° NE 18:46:07 10° SE
CZ-4B R/B 2.6 18:39:32 10° N 18:42:25 41° WNW 18:45:19 10° SW
Cosmos 1470 Rocket 3.6 18:38:13 10° S 18:42:38 63° E 18:47:03 10° NNE
Cosmos 2360 Rocket 2.5 18:39:45 10° S 18:45:03 43° ESE 18:50:23 10° NE
Cosmos 2278 Rocket 3.5 18:41:06 10° NNW 18:45:36 23° NE 18:48:36 16° E
Ariane Rocket 3.8 18:42:04 11° ESE 18:46:13 31° ENE 18:50:41 10° N
Cosmos 1602 3.9 18:42:22 10° SSW 18:46:16 80° WNW 18:50:13 10° N
Meteor 2-4 Rocket 3.8 18:46:50 10° N 18:52:41 73° ENE 18:58:36 10° SSE
Cosmos 1703 Rocket 3.6 18:48:39 10° N 18:53:00 53° ENE 18:57:16 10° SSE
Cosmos 1500 3.1 18:49:39 10° S 18:53:18 59° E 18:57:00 10° NNE
DMSP B5D1-3 4.5 18:48:18 10° NNE 18:53:29 76° ESE 18:58:39 10° S
Cosmos 2333 Rocket 3.1 18:50:54 10° SSE 18:55:23 25° ESE 18:59:55 10° NE
Cosmos 1689 Rocket 2.0 18:52:58 10° NNE 18:55:51 84° W 18:58:44 10° SSW
SL-08 RB Rocket 3.6 18:53:19 10° SSE 18:57:50 87° ENE 19:02:27 10° NNW
Meteor 2-12 Rocket 4.4 18:52:48 10° S 18:58:52 79° E 19:05:00 10° NNE
ERBS 2.9 18:56:53 10° WSW 19:00:07 50° NNW 19:02:19 18° NE
Cosmos 1980 Rocket 4.0 18:56:24 10° WSW 19:01:24 31° NW 19:06:27 10° NNE
Cosmos 1933 Rocket 3.4 18:59:13 10° S 19:03:31 68° E 19:07:55 10° NNE
Aureole 2 Rocket 3.3 19:01:28 10° NW 19:03:49 33° WSW 19:06:07 10° S
Cosmos 1943 Rocket 4.3 19:01:56 10° N 19:04:03 12° NNE 19:06:10 10° NE
Cosmos 2242 Rocket 3.5 19:06:32 10° N 19:11:05 89° E 19:15:33 10° S
Resurs 01 Rocket 2.8 19:12:41 23° ENE 19:12:51 23° ENE 19:16:21 10° N
Cosmos 2322 Rocket 2.4 19:09:21 10° SW 19:14:56 75° WNW 19:20:36 10° NNE
Cosmos 1461 4.3 19:10:40 10° WSW 19:15:11 43° NW 19:19:43 10° NNE
Abrixas rocket 1.9 19:13:48 10° WSW 19:16:07 50° SSW 19:16:07 50° SSW
Lacrosse 4 Rocket 3.4 19:13:32 10° SSE 19:14:29 15° SSE 19:14:29 15° SSE
SME Rocket 4.4 19:09:12 10° NNE 19:17:24 48° E 19:22:45 10° S
FALCON 9 DEB 3.2 19:17:03 10° WNW 19:20:13 55° N 19:20:46 46° NE
Helios 1A Rocket 4.1 19:16:25 10° S 19:20:18 44° W 19:24:12 10° NNW
SJ-6B 2.8 19:22:30 22° SSE 19:25:05 72° ENE 19:29:08 10° N
COSMOS 2428 3.4 19:20:27 10° SSE 19:32:11 - NE 19:24:51 30° ESE
ASTEX 1 3.5 19:21:48 10° NNE 19:26:33 48° E 19:30:11 16° SSE
Meteor 1-23 Rocket 4.5 19:23:05 10° N 19:28:27 45° ENE 19:30:27 33° ESE
GP-B 3.4 19:24:50 10° S 19:29:15 67° W 19:33:41 10° N
Meteor 1-14 Rocket 4.5 19:24:21 10° SSW 19:29:53 69° WNW 19:35:27 10° N
MOS 1 4.2 19:25:33 17° SSE 19:30:01 68° ENE 19:35:40 10° NNW
Cosmos 2219 Rocket 2.5 19:27:03 10° S 19:32:12 39° ESE 19:37:24 10° NE
Meteor 1-11 Rocket 3.8 19:27:08 10° S 19:32:38 53° E 19:38:05 10° NNE
FALCON 9 DEB 3.1 19:29:30 10° WNW 19:32:40 61° NNE 19:32:42 61° NNE
MetOp-A 4.2 19:28:46 10° SSE 19:34:08 80° WSW 19:39:32 10° NNW
OBJECT-B 0.6 19:36:26 80° NE 19:36:26 80° NE 19:39:36 10° N
Resurs 1-3 3.6 19:38:47 50° ESE 19:39:35 59° ENE 19:43:55 10° N
SJ 16-02 1.8 19:35:26 10° N 19:39:34 41° ENE 19:39:34 41° ENE
SL-16 R/B 3.3 19:34:22 10° WSW 19:39:47 44° NW 19:45:14 10° NNE
SeaSat 1 2.6 19:35:13 10° NNE 19:40:10 75° WNW 19:45:05 10° SW
Okean 1-7 3.7 19:35:54 10° NNW 19:40:13 57° W 19:44:27 10° S
Cosmos 1066 Rocket 4.2 19:36:42 10° N 19:42:26 72° ENE 19:45:41 27° SSE
Meteor 1-13 Rocket 4.3 19:36:50 10° NNW 19:42:50 86° W 19:48:30 11° S
USA 234 3.3 19:39:54 28° ENE 19:43:25 57° SE 19:49:50 10° SW
Cosmos 1536 4.5 19:46:16 22° NNE 19:46:16 22° NNE 19:47:49 10° NNE
CZ-2C R/B 3.3 19:42:22 10° N 19:47:46 57° WNW 19:53:01 10° SW
Cosmos 2369 Rocket 4.2 19:46:48 10° N 19:49:20 13° NNE 19:50:42 12° NE
USA 305 3.2 19:46:13 10° WNW 19:50:25 55° N 19:50:56 52° NE
BREEZE-M DEB (TANK) 2.4 19:47:59 10° W 19:50:40 75° S 19:51:09 64° SE
IRS-1A Rocket 4.2 19:46:43 18° SSE 19:51:00 84° WSW 19:56:36 10° NNW
Cosmos 2322 3.6 19:46:27 10° SSW 19:52:07 68° ESE 19:57:49 10° NNE
DMSP B5D2-2 4.3 19:48:24 10° N 19:53:38 72° WNW 19:58:49 10° SSW
SL-4 R/B 2.3 19:51:17 10° WNW 19:54:12 49° WSW 19:54:12 49° WSW
USA 186 3.9 19:56:42 20° WNW 19:56:42 20° WNW 19:58:06 10° NW
Cosmos 1869 Rocket 3.6 19:53:28 10° SSW 19:57:50 80° W 20:02:16 10° N
Cosmos 1898 Rocket 4.3 19:53:23 10° NNW 19:57:51 35° NE 19:57:51 35° NE
Gbstr 26 Del rocket 3.4 19:55:10 10° W 19:59:55 80° N 20:00:59 58° E
SL-8 Rocket 4.1 19:54:09 10° SSW 20:00:23 75° WNW 20:06:37 10° N
USA 307 3.2 19:57:33 10° WNW 20:01:47 57° N 20:01:49 57° NNE
ATLAS CENTAUR R/B 1.7 19:59:27 10° WSW 20:03:00 51° NW 20:03:11 51° NNW
Cosmos 1378 3.6 20:00:46 10° NNW 20:03:53 58° NW 20:03:53 58° NW
USA 306 3.2 20:00:56 10° WNW 20:05:03 58° N 20:05:03 58° N
Cosmos 1666 4.1 20:06:35 10° SW 20:10:05 37° WNW 20:13:36 10° N
Cosmos 1844 Rocket 4.5 20:07:32 10° NW 20:12:13 28° WSW 20:16:53 10° SSW
USA 308 3.3 20:08:09 10° WNW 20:12:00 56° NNW 20:12:00 56° NNW
Cosmos 2366 rocket 4.2 20:09:08 10° SSW 20:15:27 72° WNW 20:21:50 10° N
Landsat 7 4.4 20:17:05 47° NNE 20:17:05 47° NNE 20:20:42 10° N
NOSS 3-3 (A) 4.4 20:09:03 10° NW 20:16:24 79° NE 20:18:42 51° ESE
SL-08 R/B 4.4 20:11:58 21° S 20:16:27 77° E 20:22:56 10° NNE
NOSS 3-3 (C) 4.4 20:09:08 10° NW 20:16:30 78° NE 20:18:47 51° ESE
Okean 3 4.5 20:14:20 10° NNW 20:18:22 44° W 20:19:31 35° SW
SPOT 3 Rocket 3.4 20:18:38 80° SSE 20:18:57 88° ENE 20:24:13 10° NNW
ARIANE 5 R/B 4.3 20:21:37 25° NNE 20:21:37 25° NNE 20:23:44 10° N
Cosmos 2333 4.4 20:17:11 10° SW 20:22:49 71° WNW 20:28:33 10° NNE
Cosmos 2221 Rocket 3.9 20:19:20 10° NNW 20:23:10 62° NW 20:23:10 62° NW
Ariane Rocket 3.9 20:22:15 24° SSW 20:25:02 45° W 20:29:56 10° NNW
SPOT 1/Viking Rocket 4.2 20:29:56 45° NNE 20:29:56 45° NNE 20:33:45 10° N
Cosmos 2360 Rocket 3.4 20:23:47 10° WSW 20:29:06 41° NW 20:34:29 10° NNE
Cosmos 2278 Rocket 2.1 20:24:46 10° NNW 20:30:28 88° NNE 20:30:28 88° NNE
Cosmos 1727 Rocket 4.4 20:28:46 10° NNW 20:34:50 60° W 20:37:44 31° SSW
Cosmos 990 Rocket 4.4 20:29:57 10° NNW 20:34:05 55° N 20:34:05 55° N
Cosmos 2333 Rocket 2.5 20:33:31 10° SW 20:39:11 67° WNW 20:44:56 10° NNE
Cosmos 1821 Rocket 3.9 20:41:55 77° NE 20:41:55 77° NE 20:47:39 10° N
Cosmos 1000 Rocket 4.5 20:41:51 10° NNW 20:48:08 78° W 20:48:32 75° SW
Resurs 01 Rocket 2.9 20:50:14 38° NW 20:50:14 38° NW 20:53:23 10° NNW
MetOp-B 4.4 20:50:11 64° NW 20:50:11 64° NW 20:54:49 10° NNW
Cosmos 1943 Rocket 3.5 20:44:39 10° NNW 20:48:24 29° NNE 20:48:24 29° NNE
Cosmos 2123 Rocket 4.2 20:54:58 10° N 21:00:09 63° N 21:00:09 63° N
COSMOS 2428 3.9 21:03:46 10° SW 21:14:01 15° NNE 21:14:58 10° NNE
Cosmos 2219 Rocket 3.2 21:10:50 10° WSW 21:16:08 43° NW 21:21:31 10° NNE
SJ 16-02 3.7 21:14:22 10° NW 21:16:35 22° WNW 21:16:35 22° WNW
Terra 4.1 21:21:49 19° N 21:21:49 19° N 21:23:10 10° N
USA 234 3.5 21:27:15 64° WNW 21:27:15 64° WNW 21:33:04 10° WSW
USA 281 4.0 21:34:30 44° N 21:34:30 44° N 21:39:06 10° NNW
Cosmos 2369 Rocket 4.0 21:29:52 10° NNW 21:32:29 25° N 21:32:29 25° N
Cosmos 1943 Rocket 4.5 22:28:16 10° NW 22:29:55 20° NW 22:29:55 20° NW
